Content
SEND FEEDBACK

Daily
Averages
Monthly
Summary
United States of America

LARIMORE, NORTH DAKOTA


Home > North America > United States > North Dakota
Elevation: 1124 feet     Latitude: 47 57N     Longitude: 097 40W

WEATHER
 
SELECT A DAY
Number of Records: 198,531;   Date Range: 1/1/95 - 9/21/14
 
SHARE

PRINT THIS DATA

[ ← Previous Day ]
WEATHER ALMANAC - SEPTEMBER 2, 2014
[ Next Day → ]
[ °C ]   °F
Weather ElementAverageHighLow
Temperature63.4 °F79 °F (4:53 pm)51.1 °F (5:53 am)
Dewpoint52.3 °F55.9 °F (12:53 pm)48 °F (3:53 am)
Humidity69.1 %89 % (5:53 am)40 % (4:53 pm)
Barometer29.74 in29.80 in (9:53 am)29.67 in (6:53 pm)
Wind Speed8.5 mph16.1 mph (12:53 pm)
Wind Gust24.2 mph (5:53 pm)
Weather ElementAverage
Visibility10 mi
Wind DirectionSW (229.6 °)

Weather ElementTotal
Precipitation0.04 in
Growing Degree Days15.1 (Base 50)
Averaged from 23 records on September 2, 2014
WEATHER CONDITIONS BREAKOUT
WIND DIRECTION BREAKOUT
WEATHER BY HOUR - SEPTEMBER 2, 2014
[ °C ]   °F
Local TimeTemperatureDewpointHumidityBarometerVisibilityWind DirectionWind SpeedGust SpeedPrecipitationEventsConditions
1:53 AM53.1 °F48.9 °F86 %29.76 in10.0 miSW (220°)8.1 mphClear
2:53 AM55.0 °F48.9 °F80 %29.76 in10.0 miWSW (240°)6.9 mphClear
3:53 AM55.0 °F48.0 °F77 %29.77 in10.0 miWSW (240°)8.1 mphClear
4:53 AM52.0 °F48.0 °F86 %29.77 in10.0 miWSW (250°)6.9 mphClear
5:53 AM51.1 °F48.0 °F89 %29.77 in10.0 miWSW (250°)6.9 mphPartly Cloudy
6:53 AM52.0 °F48.0 °F86 %29.77 in10.0 miWSW (250°)5.8 mphScattered Clouds
7:53 AM54.0 °F50.0 °F86 %29.78 in10.0 miWSW (240°)5.8 mphScattered Clouds
8:53 AM57.9 °F52.0 °F81 %29.78 in10.0 miWSW (240°)3.5 mphMostly Cloudy
9:53 AM62.1 °F54.0 °F75 %29.80 in10.0 miWest (260°)6.9 mphOvercast
10:53 AM59.0 °F54.0 °F83 %29.80 in9.0 miSouth (190°)3.5 mph0.01 inRainLight Rain
11:53 AM64.9 °F55.0 °F70 %29.75 in10.0 miSouth (180°)9.2 mph0.03 inRainLight Rain
12:53 PM66.9 °F55.9 °F68 %29.75 in10.0 miSouth (180°)16.1 mph0.00 inScattered Clouds
1:53 PM73.9 °F55.9 °F53 %29.73 in10.0 miSouth (190°)16.1 mph21.9 mphScattered Clouds
2:53 PM73.9 °F54.0 °F50 %29.72 in10.0 miSSW (200°)12.7 mphScattered Clouds
3:53 PM73.9 °F55.9 °F53 %29.70 in10.0 miSSW (210°)11.5 mphScattered Clouds
4:53 PM79.0 °F53.1 °F40 %29.68 in10.0 miSW (220°)16.1 mph23.0 mphScattered Clouds
5:53 PM78.1 °F53.1 °F42 %29.68 in10.0 miWSW (240°)11.5 mph24.2 mphScattered Clouds
6:53 PM75.0 °F53.1 °F46 %29.67 in10.0 miWSW (250°)6.9 mphScattered Clouds
7:53 PM71.1 °F53.1 °F53 %29.67 in10.0 miWSW (240°)6.9 mphScattered Clouds
8:53 PM66.9 °F53.1 °F61 %29.69 in10.0 miSW (220°)6.9 mphScattered Clouds
9:53 PM64.4 °F53.6 °F68 %29.70 in10.0 miSW (230°)8.1 mphScattered Clouds
10:53 PM62.1 °F53.1 °F72 %29.72 in10.0 miWest (260°)6.9 mphScattered Clouds
11:53 PM57.9 °F53.1 °F84 %29.73 in10.0 miWest (280°)3.5 mphClear
Hourly data recorded from KGFK, located miles away from Larimore, North Dakota







STORIES FROM OUR PARTNERS